Temp
15 15 16 17 17 18 17 17 18 18 17 17 18 18 18 18 18 15 15 15 14 14 14 13 13 12 12 11 11 11 10 10 9 9 8 8 7 7 7 7 7 8 8 8
15 16 17 16 16 16 17 17 18 17 17 17 17 18 17 18 18 17 14 15 15 14 14 13 13 12 12 11 12 11 10 10 9 9 8 8 8 8 8 8 8 8 8 8
16 16 15 16 16 16 17 17 18 18 17 17 17 18 18 17 18 18 17 16 15 14 14 13 13 12 11 11 12 11 10 10 10 9 9 8 9 9 8 8 8 8 8 8
15 15 15 15 16 16 18 17 17 17 18 19 18 20 18 18 17 17 17 17 15 14 14 13 13 12 12 11 11 11 10 10 10 9 9 8 9 8 8 8 9 9 8 8
16 14 15 15 16 16 18 17 17 17 18 18 18 18 19 18 17 16 17 17 17 15 14 13 12 12 12 12 11 11 10 10 10 10 9 9 8 8 8 9 9 9 8 8
14 14 14 16 15 16 16 16 16 16 18 19 18 18 19 19 17 16 16 16 16 16 14 13 13 12 12 11 11 11 11 10 10 10 9 9 9 8 8 8 8 8 9 9
14 14 15 15 15 16 16 17 18 19 19 19 16 17 19 17 17 17 17 16 16 15 14 13 13 12 12 11 11 11 11 11 10 10 9 9 9 8 8 8 8 9 9 9
15 16 15 15 16 16 16 17 18 18 19 19 16 18 18 17 17 17 16 16 16 15 14 14 13 12 12 12 11 11 11 11 10 10 9 8 8 8 8 8 8 9 9 9
16 16 15 15 15 16 16 16 17 17 17 18 19 17 17 17 17 16 16 15 16 15 15 14 13 12 12 12 11 11 11 11 10 9 9 8 8 8 8 8 8 8 8 9
15 16 15 15 15 15 16 16 16 17 18 18 18 17 18 17 16 16 16 15 15 15 15 15 13 12 12 12 11 10 11 11 10 9 8 8 7 7 8 8 8 8 8 8
14 14 15 14 15 16 15 16 16 17 17 19 18 18 17 16 16 16 16 16 15 15 15 14 13 12 12 11 11 10 11 11 10 9 7 7 6 7 7 8 8 8 8 8
14 14 15 16 15 15 15 16 16 17 16 17 17 18 16 16 16 16 16 16 15 15 15 14 13 13 12 11 11 10 11 10 10 9 7 6 6 7 7 7 7 7 8 8
14 14 15 15 15 14 15 15 15 16 16 17 17 18 16 16 16 16 16 15 15 14 14 14 13 12 12 11 10 10 10 10 10 10 8 8 7 7 8 7 7 7 7 8
13 14 14 17 17 16 15 15 15 15 17 17 17 17 16 16 16 16 16 15 15 14 14 13 13 12 12 11 10 10 10 10 9 9 8 8 7 8 8 7 7 7 7 7
12 13 14 15 15 15 16 15 15 15 16 17 17 17 16 16 16 16 15 15 14 14 14 14 13 13 11 10 10 10 10 10 9 8 8 8 8 8 7 7 7 7 7 7
13 13 14 14 15 15 15 15 14 14 15 15 16 16 16 16 15 15 15 15 13 13 13 13 13 12 11 10 10 10 9 9 8 8 8 7 7 7 7 7 7 7 7 7
11 13 13 15 14 15 15 15 15 15 15 16 16 15 15 15 15 15 15 14 13 13 13 13 12 11 11 10 10 9 9 9 8 8 8 7 7 7 6 6 6 6 6 6
12 12 13 15 13 15 15 15 15 15 15 14 14 15 14 14 14 14 14 13 12 13 13 13 12 11 10 10 10 9 9 9 8 8 7 7 6 5 5 5 5 5 5 5
12 12 13 13 14 15 13 14 14 13 14 14 13 14 14 14 14 14 13 12 12 12 13 12 12 11 10 10 9 9 9 8 8 8 7 6 6 5 5 5 5 5 5 6
12 12 13 13 15 15 14 12 13 13 14 13 14 13 13 12 12 12 12 12 12 12 12 11 11 11 10 10 9 9 9 8 8 8 7 7 7 6 6 5 5 5 5 6
12 12 13 14 14 12 12 12 13 13 12 13 13 12 12 12 12 12 12 12 12 12 11 11 11 11 10 9 9 9 9 9 8 8 7 7 6 6 6 6 5 6 6 5
11 12 13 12 13 13 12 12 12 12 12 12 12 12 12 12 12 11 11 11 11 11 11 10 11 11 10 9 9 9 9 8 8 8 7 7 6 6 6 6 6 5 6 6
10 10 11 11 11 11 11 12 12 12 12 12 12 12 12 11 11 11 10 10 10 10 10 10 10 10 10 10 9 9 9 9 9 8 8 7 7 7 6 6 7 7 7 6
9 9 9 9 10 10 10 11 11 11 11 11 11 11 11 10 10 10 10 10 10 10 10 9 10 10 10 10 10 9 9 9 8 8 8 7 7 7 7 7 7 7 7 6
7 8 8 7 9 9 9 10 10 10 9 10 10 10 10 9 9 9 9 9 9 9 9 9 9 9 9 9 9 9 9 9 8 8 8 8 8 7 7 8 8 8 7 6
6 6 7 8 7 8 8 9 9 8 8 9 9 9 8 8 8 8 8 8 9 9 9 9 9 9 9 9 9 9 9 8 8 8 8 8 8 8 8 7 8 7 7 6
Height
3191 3196 3197 3198 3200 3199 3200 3203 3203 3204 3203 3202 3202 3203 3204 3203 3202 3202 3200 3201 3202 3204 3204 3204 3204 3203 3203 3202 3201 3199 3197 3195 3192 3189 3184 3173 3170 3176 3183 3185 3187 3188 3189 3191
3191 3193 3195 3195 3197 3200 3201 3201 3201 3203 3201 3201 3200 3202 3202 3202 3202 3201 3199 3198 3199 3201 3202 3203 3203 3203 3202 3202 3200 3198 3197 3195 3192 3191 3189 3182 3180 3181 3183 3184 3186 3187 3188 3189
3189 3191 3191 3193 3195 3198 3199 3198 3199 3201 3200 3200 3199 3199 3200 3200 3199 3198 3197 3194 3194 3198 3201 3202 3203 3202 3201 3201 3200 3198 3196 3194 3193 3191 3190 3188 3183 3184 3186 3186 3188 3188 3188 3188
3188 3188 3189 3191 3193 3196 3194 3197 3199 3200 3200 3195 3198 3193 3195 3197 3197 3195 3194 3191 3190 3195 3198 3201 3201 3201 3201 3200 3198 3197 3195 3194 3193 3192 3191 3190 3187 3187 3187 3189 3189 3188 3187 3184
3185 3184 3187 3190 3192 3193 3193 3195 3197 3198 3198 3197 3194 3196 3191 3193 3195 3195 3192 3191 3191 3193 3197 3199 3200 3200 3200 3199 3198 3197 3195 3193 3192 3191 3190 3189 3189 3188 3187 3187 3186 3185 3182 3180
3182 3181 3185 3188 3188 3191 3192 3195 3196 3196 3195 3193 3190 3194 3187 3190 3193 3193 3193 3191 3192 3194 3196 3197 3198 3198 3198 3198 3197 3195 3194 3192 3190 3190 3189 3188 3188 3187 3186 3185 3184 3183 3180 3178
3180 3181 3184 3184 3187 3189 3192 3193 3190 3189 3187 3185 3189 3192 3187 3189 3190 3191 3191 3190 3192 3194 3195 3195 3195 3196 3196 3196 3195 3193 3191 3190 3188 3187 3186 3187 3186 3185 3184 3184 3182 3181 3179 3176
3177 3179 3180 3182 3184 3187 3188 3189 3185 3184 3181 3182 3189 3187 3186 3188 3188 3188 3189 3189 3191 3192 3193 3193 3193 3194 3194 3194 3193 3191 3189 3187 3185 3183 3183 3183 3183 3183 3183 3182 3180 3179 3178 3176
3174 3175 3177 3179 3182 3185 3186 3188 3187 3187 3188 3186 3180 3185 3187 3187 3187 3188 3188 3188 3189 3192 3191 3191 3192 3192 3192 3191 3190 3189 3186 3184 3182 3180 3180 3180 3181 3181 3181 3181 3179 3177 3176 3175
3173 3173 3174 3176 3179 3181 3183 3185 3186 3185 3181 3182 3178 3183 3181 3186 3187 3187 3187 3186 3189 3190 3190 3189 3189 3189 3189 3188 3188 3186 3184 3181 3178 3176 3175 3173 3175 3176 3180 3179 3178 3177 3176 3175
3171 3173 3172 3174 3175 3177 3180 3181 3183 3180 3181 3175 3177 3179 3181 3184 3186 3185 3185 3186 3187 3188 3188 3187 3187 3186 3186 3186 3185 3183 3182 3177 3174 3170 3163 3158 3166 3171 3178 3177 3177 3176 3176 3174
3168 3170 3169 3170 3170 3173 3174 3176 3178 3178 3181 3181 3180 3178 3180 3182 3183 3183 3183 3184 3185 3185 3185 3184 3184 3184 3183 3183 3181 3180 3178 3175 3171 3164 3152 3165 3166 3173 3175 3176 3175 3175 3173 3173
3165 3166 3167 3168 3172 3171 3172 3173 3175 3177 3177 3177 3178 3176 3178 3181 3181 3180 3180 3181 3182 3182 3182 3182 3181 3181 3180 3179 3178 3178 3176 3174 3170 3166 3164 3166 3169 3172 3174 3173 3173 3173 3174 3173
3160 3162 3163 3159 3162 3164 3168 3168 3169 3173 3173 3172 3175 3172 3177 3178 3178 3178 3178 3178 3178 3179 3179 3179 3178 3177 3177 3177 3177 3177 3176 3174 3172 3169 3170 3171 3172 3174 3174 3175 3174 3173 3172 3172
3157 3158 3161 3161 3161 3163 3164 3165 3166 3170 3170 3171 3168 3171 3174 3175 3176 3175 3175 3175 3175 3176 3176 3176 3175 3175 3175 3175 3176 3176 3174 3173 3172 3170 3171 3172 3173 3174 3173 3174 3173 3172 3172 3172
3151 3154 3157 3158 3160 3162 3162 3163 3165 3167 3167 3169 3170 3170 3172 3172 3172 3172 3172 3172 3172 3173 3173 3173 3172 3173 3173 3173 3174 3173 3173 3173 3172 3171 3171 3171 3172 3172 3173 3173 3172 3173 3172 3172
3147 3150 3152 3152 3155 3158 3159 3159 3162 3165 3166 3168 3169 3169 3170 3170 3169 3169 3169 3169 3170 3170 3171 3170 3169 3170 3170 3171 3171 3171 3171 3172 3171 3170 3170 3170 3170 3170 3171 3171 3171 3172 3170 3170
3142 3145 3148 3147 3151 3152 3151 3153 3158 3161 3163 3165 3164 3165 3167 3170 3168 3167 3167 3167 3168 3168 3168 3167 3166 3167 3168 3170 3169 3169 3170 3169 3169 3168 3168 3168 3167 3165 3165 3166 3167 3168 3168 3168
3139 3141 3143 3145 3145 3146 3147 3148 3152 3157 3161 3161 3161 3164 3164 3166 3166 3165 3165 3166 3166 3166 3165 3165 3165 3165 3166 3167 3168 3168 3167 3167 3167 3166 3166 3165 3163 3163 3163 3162 3162 3162 3162 3164
3137 3137 3140 3141 3138 3140 3143 3145 3148 3152 3156 3157 3158 3160 3162 3164 3166 3164 3164 3164 3164 3163 3163 3162 3163 3164 3165 3166 3166 3166 3166 3166 3164 3163 3163 3163 3163 3162 3161 3161 3161 3160 3162 3163
3135 3135 3135 3136 3136 3139 3140 3143 3147 3152 3156 3154 3156 3158 3160 3161 3162 3162 3162 3161 3161 3160 3160 3160 3161 3162 3163 3164 3165 3165 3164 3164 3162 3161 3161 3161 3161 3161 3161 3161 3161 3161 3162 3160
3133 3132 3134 3136 3136 3139 3141 3144 3148 3149 3150 3152 3154 3156 3158 3159 3160 3160 3159 3159 3158 3158 3158 3158 3159 3160 3161 3162 3162 3162 3161 3161 3160 3158 3157 3156 3157 3157 3157 3157 3158 3158 3157 3157
3132 3132 3133 3136 3136 3138 3140 3142 3145 3146 3149 3150 3152 3153 3155 3155 3156 3156 3156 3156 3156 3155 3155 3156 3156 3157 3158 3158 3158 3158 3158 3157 3156 3155 3153 3153 3152 3152 3152 3153 3153 3153 3152 3153
3128 3129 3132 3135 3134 3138 3139 3140 3141 3143 3143 3147 3148 3150 3151 3151 3151 3151 3150 3150 3151 3151 3151 3152 3153 3153 3154 3154 3154 3154 3153 3152 3151 3150 3149 3148 3148 3148 3147 3148 3147 3148 3148 3147
3126 3128 3130 3132 3133 3137 3137 3138 3138 3138 3142 3143 3144 3145 3147 3147 3147 3146 3146 3146 3147 3148 3149 3149 3149 3149 3149 3149 3149 3148 3147 3147 3146 3145 3144 3143 3143 3143 3143 3142 3142 3142 3142 3143
3124 3126 3130 3130 3130 3132 3132 3134 3135 3137 3139 3139 3139 3141 3143 3143 3143 3143 3144 3144 3145 3145 3145 3145 3144 3144 3144 3143 3142 3142 3142 3142 3142 3142 3141 3140 3139 3138 3138 3137 3137 3136 3137 3137
Wind_Speed
18 17 23 18 16 11 7 9 8 6 6 5 10 12 7 7 7 9 11 16 16 8 5 3 1 1 2 5 6 9 7 11 13 13 22 13 4 6 9 6 4 3 5 8
14 19 17 17 17 14 13 13 10 7 5 1 2 7 7 8 6 9 13 13 16 16 10 5 3 3 3 4 9 10 10 12 10 8 8 24 22 18 13 11 5 1 6 12
15 11 17 15 15 16 17 15 11 8 3 2 2 10 7 8 9 13 14 16 17 19 14 7 4 3 4 5 8 10 11 12 10 6 4 9 17 11 7 7 6 4 6 12
14 16 12 13 15 16 17 14 11 9 9 10 4 9 8 9 7 8 10 10 12 21 19 13 6 3 5 6 7 8 8 11 8 3 3 2 6 9 6 3 4 7 11 14
10 15 14 14 13 15 8 8 9 9 9 9 11 9 9 8 6 3 3 2 10 17 16 13 9 8 6 7 8 10 7 8 8 4 2 1 5 6 2 4 8 11 13 11
8 13 13 12 13 16 11 8 7 6 10 15 9 7 15 6 5 3 1 6 7 9 14 15 13 9 7 7 9 9 8 8 5 4 5 5 4 3 3 5 9 12 13 9
13 13 12 13 11 18 15 13 14 10 12 7 4 6 10 1 7 5 6 9 8 7 10 11 10 9 7 6 8 7 5 8 8 6 8 9 7 7 4 5 7 11 12 10
15 15 19 14 16 17 19 17 15 5 7 6 5 7 5 4 6 5 3 9 10 7 8 9 11 8 8 5 6 7 9 11 12 10 10 13 10 8 6 5 7 10 11 9
13 14 16 14 14 14 16 17 9 7 5 11 8 7 7 6 3 4 4 11 11 5 7 12 13 12 10 9 8 9 12 14 15 14 13 15 13 7 5 5 5 7 8 7
7 11 13 18 16 17 12 16 10 12 6 8 6 6 4 4 4 5 5 9 11 7 3 9 13 14 13 10 9 11 15 16 16 14 15 19 20 9 5 5 4 5 6 6
14 9 11 12 21 18 18 16 14 7 6 5 5 9 7 4 4 6 10 9 11 12 10 6 10 15 13 10 11 13 15 17 16 17 21 25 18 12 10 3 1 2 3 4
19 13 15 18 13 19 15 20 19 17 12 15 10 4 9 8 8 10 10 11 11 10 11 7 8 9 11 12 11 12 13 13 11 17 4 4 15 10 6 3 1 1 4 5
20 14 14 16 14 18 15 19 20 18 13 9 14 7 10 8 8 10 10 12 12 10 8 6 8 10 10 12 11 11 9 10 10 11 11 14 12 9 6 3 1 1 2 3
17 21 20 16 19 18 16 18 21 20 17 13 15 3 8 7 8 11 10 10 11 9 8 7 8 12 11 11 10 9 7 6 6 6 5 7 8 7 4 2 2 1 1 2
17 19 22 20 10 10 13 13 17 19 16 13 14 12 6 10 10 11 11 11 11 7 8 9 8 7 8 10 9 8 5 3 3 0 3 6 7 6 5 4 3 2 2 3
26 19 19 23 20 17 14 12 12 14 11 9 7 7 9 9 10 11 11 10 7 5 6 8 9 6 7 10 9 9 8 7 6 4 3 7 7 7 7 6 4 3 3 6
16 21 18 22 18 18 22 20 17 15 13 11 11 8 9 11 12 12 9 9 7 5 5 9 10 9 10 11 9 10 7 7 5 4 5 8 9 9 8 6 7 8 8 14
15 20 17 18 13 15 16 19 19 18 14 14 11 9 7 17 13 9 8 9 7 4 6 8 4 8 10 11 11 9 8 11 7 6 3 11 16 18 14 13 13 18 19 14
15 15 14 13 21 7 6 16 20 17 13 14 9 11 18 16 11 10 8 8 8 10 11 13 5 4 11 11 12 9 10 9 8 8 6 5 5 4 5 10 17 22 26 11
12 16 16 15 16 12 9 14 22 19 14 14 19 18 13 9 5 7 7 8 11 15 15 10 6 6 9 11 13 10 9 10 9 9 9 7 6 3 4 2 1 3 8 8
12 11 15 14 12 5 11 17 17 15 8 16 12 7 5 8 9 10 10 12 13 13 8 9 8 8 10 12 11 10 8 8 10 10 11 10 8 9 12 10 6 3 11 10
11 11 11 7 7 6 8 16 12 9 10 15 13 10 6 10 14 16 16 14 15 11 9 9 10 10 10 11 11 11 11 10 12 12 14 15 16 17 16 17 15 19 16 15
6 11 8 8 5 4 15 16 16 15 14 16 15 13 17 16 15 17 16 15 13 10 12 11 11 10 10 10 10 12 13 14 14 15 15 17 17 18 20 20 18 17 21 22
9 12 6 6 9 9 8 17 20 20 19 18 19 13 13 15 15 14 13 11 11 11 15 14 13 12 12 13 14 15 17 18 15 14 17 18 19 21 22 22 21 18 17 19
8 7 9 8 10 12 12 13 12 14 14 14 13 13 13 11 9 8 6 5 6 7 8 10 12 14 15 16 16 18 18 16 16 14 14 16 16 16 18 17 16 18 18 19
7 9 8 8 15 13 14 13 16 14 13 13 13 12 10 7 6 8 8 8 8 9 8 10 14 17 20 22 21 17 16 16 14 14 13 12 13 14 15 16 15 15 17 14
Wind_Direction
224 212 216 219 222 243 216 236 254 255 310 308 244 241 235 254 286 234 243 227 218 225 225 210 177 284 10 352 2 7 359 339 350 10 1 15 10 212 102 78 13 307 278 280
223 219 219 214 218 224 234 245 238 239 295 181 241 215 216 231 243 257 243 249 231 216 230 210 211 240 290 331 349 2 0 352 356 39 46 66 70 93 82 82 70 339 264 297
218 221 223 217 222 228 240 242 219 242 248 263 253 232 228 235 262 273 277 271 227 214 223 198 186 220 253 311 341 357 352 356 359 33 90 69 73 95 94 62 38 16 303 287
224 227 211 216 223 226 226 217 219 231 243 243 223 288 201 241 255 277 298 292 222 206 211 209 220 231 271 298 319 330 344 343 353 7 12 247 124 109 65 6 336 326 319 316
218 210 210 214 221 209 216 194 215 220 243 262 240 261 264 282 231 267 286 214 184 195 200 209 216 231 272 296 323 326 321 327 348 333 276 355 214 239 294 348 339 335 333 323
220 188 198 206 212 197 213 174 170 201 249 248 249 266 275 223 222 216 35 205 193 183 194 202 215 220 265 286 321 322 317 312 326 309 262 258 258 251 299 332 335 334 339 330
218 210 206 191 197 204 191 206 229 225 217 252 153 237 271 229 285 238 212 209 177 179 196 212 214 229 252 275 316 309 313 313 304 280 260 249 255 262 267 305 327 336 344 340
209 203 206 204 202 209 208 224 256 246 258 236 163 239 222 231 256 257 204 198 170 187 199 225 222 217 244 275 305 307 315 317 304 277 251 244 244 262 264 301 330 345 344 339
213 222 189 201 207 197 207 217 239 256 244 272 216 225 250 235 256 177 163 173 184 180 219 233 225 227 251 266 283 300 318 318 306 281 257 245 237 257 267 288 325 345 344 342
232 225 212 212 214 211 207 211 205 225 250 257 167 242 235 208 218 198 197 206 204 207 302 255 233 228 243 272 273 294 312 316 301 280 263 239 220 173 245 273 326 348 336 334
215 229 196 204 214 213 212 217 229 264 254 301 231 208 180 213 201 232 234 242 233 253 298 283 234 232 252 269 276 290 310 318 315 312 253 211 185 218 217 223 335 353 346 345
205 221 234 216 216 218 218 230 229 229 204 236 288 298 172 212 240 262 255 253 266 272 301 296 258 250 258 267 273 286 313 320 332 11 314 229 150 175 184 176 122 359 11 347
206 217 218 224 234 216 223 228 226 233 241 213 240 201 185 227 253 264 268 263 268 278 295 283 266 253 264 265 260 278 310 322 359 57 115 144 154 169 188 158 189 253 306 315
207 220 225 238 227 220 217 224 220 214 210 204 224 191 195 246 259 259 264 254 262 278 283 277 275 274 257 246 235 269 301 329 342 70 111 152 171 191 213 227 255 282 343 340
215 220 225 232 233 219 227 217 207 206 223 223 237 201 197 245 252 269 277 271 263 262 262 277 286 284 253 229 229 248 253 298 323 138 170 192 212 222 221 237 266 309 334 350
221 223 225 229 228 231 225 214 209 204 211 213 220 200 221 239 257 269 270 260 245 230 259 274 296 280 243 218 229 243 258 280 301 302 223 230 228 239 248 251 252 270 348 348
216 211 214 221 217 225 230 219 217 217 207 206 221 220 248 255 269 272 265 240 218 219 261 298 292 245 231 217 233 235 239 269 291 291 278 250 249 259 251 259 270 256 288 312
224 208 212 225 196 219 224 211 216 217 220 214 221 222 272 270 258 249 236 215 212 258 298 317 305 233 221 217 222 221 245 271 258 261 314 272 283 292 244 255 266 263 286 287
211 204 207 204 210 204 183 204 206 193 203 204 217 252 242 248 237 240 230 219 246 270 292 320 296 210 207 217 213 242 243 248 263 270 251 40 311 297 311 282 268 276 279 220
195 192 206 209 220 214 156 199 201 190 187 201 211 228 233 214 202 248 264 283 293 292 288 278 242 224 226 224 223 242 253 266 274 265 253 272 265 228 214 105 260 86 185 217
198 195 211 201 213 130 179 179 177 191 177 198 206 216 221 206 215 264 282 295 308 300 270 232 216 216 220 232 241 259 267 274 286 272 265 259 256 264 271 255 251 190 287 292
201 204 193 194 210 161 167 175 176 198 201 204 200 198 244 268 271 279 284 302 306 293 257 235 225 229 235 240 254 270 282 288 287 282 271 262 257 272 281 282 271 250 258 250
183 207 195 199 201 222 192 195 204 212 215 214 224 247 273 274 276 270 278 284 290 279 250 230 230 235 238 253 266 284 296 291 287 279 275 266 263 270 278 281 279 262 254 256
192 182 179 189 212 220 220 221 225 224 220 244 258 251 275 282 277 271 265 261 267 235 235 233 234 237 251 260 273 287 298 297 283 275 271 269 269 269 273 272 266 258 256 260
208 210 224 235 234 232 235 226 226 232 227 230 236 259 278 276 266 241 211 198 197 187 209 235 249 253 255 259 268 287 300 294 286 279 270 267 268 269 270 269 266 259 253 253
239 238 240 246 242 238 242 235 235 235 248 253 259 258 259 239 199 186 193 195 204 217 240 265 272 270 266 268 277 287 294 286 278 276 271 267 268 271 272 271 266 260 251 249